LKPO Weather Reports


time (UTC)temp
C
wind
direction
speed
KPH
gust
KPH
rain 1hr
cm
rain 24hr
cm
rain mn
cm
humidity
%
barometer
mb
20260508012223 12 330 11.3 0.0 0.00 0.00 0.00 87
20260508002122 12 340 11.3 0.0 0.00 0.00 0.00 76
20260507232123 13 10 8.0 0.0 0.00 0.00 0.00 76
20260507222609 13 330 11.3 0.0 0.00 0.00 0.00 76
20260507222424 13 330 11.3 0.0 0.00 0.00 0.00 76
20260507212124 13 310 3.2 0.0 0.00 0.00 0.00 76
20260507202125 15 140 11.3 0.0 0.00 0.00 0.00 72
20260507192227 17 260 11.3 0.0 0.00 0.00 0.00 55
20260507182123 17 270 11.3 0.0 0.00 0.00 0.00 52
20260507172124 21 240 11.3 0.0 0.00 0.00 0.00 40
20260507162425 22 210 8.0 0.0 0.00 0.00 0.00 35
20260507152125 20 150 22.5 0.0 0.00 0.00 0.00 42
20260507142125 20 170 19.3 0.0 0.00 0.00 0.00 45
20260507132225 21 180 22.5 0.0 0.00 0.00 0.00 43
20260507122124 20 190 22.5 0.0 0.00 0.00 0.00 49
20260507112140 18 190 19.3 0.0 0.00 0.00 0.00 52
20260507102324 18 190 14.5 0.0 0.00 0.00 0.00 52
20260507092124 17 160 8.0 0.0 0.00 0.00 0.00 55
20260507082123 17 280 14.5 0.0 0.00 0.00 0.00 63
20260507072124 17 280 22.5 0.0 0.00 0.00 0.00 63
20260507062123 16 300 3.2 0.0 0.00 0.00 0.00 67
20260507052123 13 130 8.0 0.0 0.00 0.00 0.00 76
20260507042325 12 190 8.0 0.0 0.00 0.00 0.00 87
20260507032123 12 280 3.2 0.0 0.00 0.00 0.00 87
20260507022121 13 210 11.3 0.0 0.00 0.00 0.00 76